Location: Boncourt
(49.6160°N, 3.9448°E)
Time: 07:04:45
(UTC+00:00)

Spot 1 - Pass Details

Date: 09 February 2023
Orbit: 575 x 772 km, 98.8° (Epoch: 30 March)

Event Time Altitude Azimuth Distance (km) Brightness Sun altitude
Exits shadow 18:59:37 43° 33° (NNE) 816 4.4 -20.9°
Maximum altitude 19:00:50 72° 104° (ESE) 613 3.7 -21.1°
Drops below altitude 10° 19:04:55 10° 189° (S) 1,901 6.6 -21.8°
Sets 19:07:05 0° 191° (SSW) 2,812 7.5 -22.1°
